Weather in Namur

Belgium     50°28′04″N   4°52′23″E
temp.,
°C
wind,
m/s
gust,
m/s
humid.,
%
clouds,
%
prec.,
mm/h
press.,
hPa
HPBL,
m
22 may, sun
sun2223:00+11nw12855 0.0 102012
02:00+9e128817 0.0 101915
05:00+9se1189100 0.0 101910
08:00+12se118056 0.0 1018122
11:00+18e226549 0.0 1015784
14:00+21wsw2351100 0.0 10151415
17:00+22ne1150100 0.0 10121313
20:00+19ne2271100 0.0 101134
23 may, mon
mon2323:00+15sse227692 0.0 101019
02:00+14s228762 0.0 100819
05:00+13se2382100 0.0 100538
08:00+15se2576100 0.1 1004192
11:00+16se4896100 2.8 1002317
14:00+20ssw71187100 4.1 10001144
17:00+18ssw71289100 0.8 999949
20:00+12w6119799 6.6 1001561
24 may, tue
tue2423:00+12wsw61095100 0.1 1004663
02:00+10sw51193100 0.1 1005516
05:00+10sw61193100 0.3 1005524
08:00+11sw6109095 1.4 1006737
11:00+14sw8116214 0.0 10071514
14:00+14wsw7969100 0.3 10081357
17:00+16wsw686291 0.6 10091465
20:00+13wsw368393 1.8 1010238
25 may, wed
wed2523:00+9sw228951 0.1 101221
02:00+8sw22922 0.1 101428
05:00+7ssw33930 0.0 101447
08:00+10sw48884 0.0 1014288
11:00+15sw79620 0.0 10151313
14:00+17sw8105061 0.0 10142255
17:00+15w61062100 0.0 10151165
20:00+14wsw61072100 0.1 1016973
26 may, thu
thu2623:00+12sw51288100 0.1 1017429
02:00+11wsw5119611 0.1 1019376
05:00+9wsw389835 0.0 1020202
08:00+11w35885 0.0 1022267
11:00+16wnw45625 0.0 10231076
14:00+18w45518 0.0 10241461
17:00+19w455058 0.0 10231512
20:00+18w366943 0.0 1022216